Weather History for KMGG - February, 2013

Change the Weather History Date:

Wednesday, February 13, 2013

  Actual Average (KSTC) Record (KSTC)
Temperature  
Mean Temperature 26 °F 16 °F  
Max Temperature 35 °F 26 °F 47 °F (2011)
Min Temperature 18 °F 6 °F -26 °F (1936)
Degree Days  
Heating Degree Days 38 49  
Month to date heating degree days 657  
Since 1 July heating degree days 5759  
Cooling Degree Days 0 0  
Month to date cooling degree days 0  
Year to date cooling degree days 0  
Moisture  
Dew Point 25 °F    
Average Humidity 89    
Maximum Humidity 100    
Minimum Humidity 70    
Precipitation  
Precipitation 0.13 in 0.02 in 0.70 in (1897)
Month to date precipitation 0.23  
Year to date precipitation 0.88  
Snow  
Snow 0.00 in 0.30 in 4.60 in (2013)
Month to date snowfall 3.0  
Since 1 July snowfall 30.2  
Snow Depth -    
Sea Level Pressure  
Sea Level Pressure 29.66 in    
Wind  
Wind Speed 4 mph (SW)    
Max Wind Speed 9 mph    
Max Gust Speed -    
Visibility 7 miles    
Events Rain , Snow    
T = Trace of Precipitation, MM = Missing Value Source: NWS Daily Summary

Daily Weather History Graph

Daily Weather History Graph

Search for Another Location

Airport or City:

Trip Planner

Search our weather history database for the weather conditions in past years. The results will help you decide how hot, cold, wet, or windy it might be!

Date:

Astronomy

Feb. 13, 2013 Rise Set
Actual Time 7:19 AM CST 5:41 PM CST
Civil Twilight 6:49 AM CST 6:11 PM CST
Nautical Twilight 6:14 AM CST 6:46 PM CST
Astronomical Twilight 5:40 AM CST 7:20 PM CST
Moon 8:36 AM CST (2/13) 9:59 PM CST (2/13)
Length of Visible Light 11h 22m
Length of Day
10h 21m
Waxing Crescent, 14% of the Moon is Illuminated
Feb 13
Waxing Crescent
Feb 17
First Quarter
Feb 25
Full
Mar 4
Last Quarter
Mar 11
New

Hourly Weather History & Observations

Time (CST) Temp. Windchill Dew Point Humidity Pressure Visibility Wind Dir Wind Speed Gust Speed Precip Events Conditions
12:15 AM 21.7 °F 12.3 °F 18.5 °F 87% 29.79 in 10.0 mi West 8.1 mph - N/A   Mostly Cloudy
12:36 AM 22.1 °F 12.8 °F 18.9 °F 87% 29.79 in 10.0 mi West 8.1 mph - N/A   Overcast
12:55 AM 22.1 °F 13.7 °F 19.0 °F 88% 29.78 in 10.0 mi West 6.9 mph - N/A   Overcast
1:15 AM 22.1 °F 15.9 °F 19.2 °F 89% 29.77 in 10.0 mi West 4.6 mph - N/A   Overcast
1:35 AM 22.5 °F 15.1 °F 19.4 °F 88% 29.77 in 10.0 mi West 5.8 mph - N/A   Overcast
1:56 AM 22.5 °F 16.3 °F 19.4 °F 88% 29.77 in 10.0 mi West 4.6 mph - N/A   Overcast
2:15 AM 22.5 °F 16.3 °F 19.6 °F 89% 29.77 in 10.0 mi West 4.6 mph - N/A   Overcast
2:35 AM 22.5 °F - 19.6 °F 89% 29.77 in 10.0 mi Calm Calm - N/A   Overcast
2:56 AM 21.9 °F 15.7 °F 19.2 °F 89% 29.76 in 10.0 mi WSW 4.6 mph - N/A   Scattered Clouds
3:15 AM 20.7 °F 13.0 °F 18.5 °F 91% 29.75 in 10.0 mi WSW 5.8 mph - N/A   Clear
3:35 AM 19.2 °F - 17.1 °F 91% 29.75 in 10.0 mi Calm Calm - N/A   Scattered Clouds
3:56 AM 18.9 °F 9.8 °F 17.1 °F 93% 29.75 in 10.0 mi WSW 6.9 mph - N/A   Scattered Clouds
4:15 AM 18.3 °F 11.5 °F 16.5 °F 93% 29.75 in 10.0 mi West 4.6 mph - N/A   Scattered Clouds
4:35 AM 19.0 °F 11.1 °F 17.4 °F 93% 29.74 in 10.0 mi West 5.8 mph - N/A   Overcast
4:55 AM 19.4 °F 12.8 °F 17.8 °F 93% 29.74 in 10.0 mi West 4.6 mph - N/A   Overcast
5:15 AM 19.9 °F 14.9 °F 18.1 °F 93% 29.73 in 10.0 mi WSW 3.5 mph - N/A   Overcast
5:35 AM 20.3 °F 15.4 °F 18.5 °F 93% 29.72 in 10.0 mi WSW 3.5 mph - N/A   Overcast
5:56 AM 20.3 °F - 18.3 °F 92% 29.72 in 10.0 mi Calm Calm - N/A   Overcast
6:15 AM 19.4 °F - 17.6 °F 93% 29.72 in 10.0 mi Calm Calm - N/A   Overcast
6:35 AM 19.0 °F - 17.4 °F 93% 29.72 in 10.0 mi Calm Calm - N/A   Overcast
6:55 AM 18.9 °F - 17.4 °F 94% 29.71 in 10.0 mi Calm Calm - N/A   Overcast
7:15 AM 19.6 °F - 17.8 °F 93% 29.71 in 10.0 mi Calm Calm - N/A   Overcast
7:36 AM 19.9 °F - 18.3 °F 93% 29.70 in 10.0 mi Calm Calm - N/A   Overcast
7:56 AM 21.0 °F - 18.9 °F 91% 29.70 in 10.0 mi Calm Calm - N/A   Overcast
8:15 AM 21.6 °F 16.8 °F 19.2 °F 91% 29.70 in 10.0 mi SW 3.5 mph - N/A   Overcast
8:35 AM 22.1 °F - 19.8 °F 91% 29.70 in 10.0 mi Calm Calm - N/A   Mostly Cloudy
8:55 AM 22.3 °F - 19.4 °F 89% 29.70 in 10.0 mi Calm Calm - N/A   Mostly Cloudy
9:16 AM 23.7 °F 19.3 °F 19.9 °F 85% 29.70 in 10.0 mi South 3.5 mph - N/A   Mostly Cloudy
9:35 AM 23.5 °F 19.1 °F 19.6 °F 85% 29.70 in 10.0 mi South 3.5 mph - N/A   Overcast
9:55 AM 24.8 °F 17.9 °F 20.3 °F 83% 29.70 in 10.0 mi SSW 5.8 mph - N/A   Scattered Clouds
10:15 AM 26.6 °F 22.6 °F 21.2 °F 80% 29.70 in 10.0 mi SW 3.5 mph - N/A   Clear
10:35 AM 28.2 °F 22.0 °F 21.9 °F 77% 29.69 in 10.0 mi SW 5.8 mph - N/A   Clear
11:15 AM 31.8 °F 27.3 °F 24.1 °F 73% 29.68 in 10.0 mi SSW 4.6 mph - N/A   Clear
11:35 AM 33.3 °F 27.9 °F 25.2 °F 72% 29.68 in 10.0 mi SSW 5.8 mph - N/A   Clear
11:55 AM 33.8 °F 27.7 °F 25.9 °F 73% 29.67 in 10.0 mi SSW 6.9 mph - N/A   Clear
12:16 PM 33.3 °F 28.9 °F 25.9 °F 74% 29.66 in 10.0 mi SW 4.6 mph - N/A   Clear
12:56 PM 34.0 °F 28.0 °F 26.1 °F 73% 29.65 in 10.0 mi SW 6.9 mph - N/A   Scattered Clouds
1:15 PM 34.9 °F 29.0 °F 26.4 °F 71% 29.64 in 10.0 mi SW 6.9 mph - N/A   Scattered Clouds
1:35 PM 34.5 °F 29.4 °F 26.4 °F 72% 29.63 in 10.0 mi SSW 5.8 mph - N/A   Mostly Cloudy
1:55 PM 34.9 °F 29.9 °F 26.6 °F 72% 29.63 in 10.0 mi SW 5.8 mph - N/A   Mostly Cloudy
2:15 PM 35.4 °F 29.7 °F 26.6 °F 70% 29.62 in 10.0 mi SW 6.9 mph - N/A   Overcast
2:35 PM 34.9 °F 30.8 °F 27.1 °F 73% 29.63 in 10.0 mi SSW 4.6 mph - N/A   Overcast
2:55 PM 34.7 °F 30.6 °F 27.3 °F 74% 29.62 in 10.0 mi SW 4.6 mph - N/A   Overcast
3:15 PM 34.7 °F 31.8 °F 27.3 °F 74% 29.62 in 10.0 mi SW 3.5 mph - N/A   Overcast
3:35 PM 34.5 °F 31.6 °F 27.5 °F 76% 29.62 in 10.0 mi SSW 3.5 mph - N/A   Overcast
3:55 PM 34.0 °F 29.8 °F 28.4 °F 80% 29.62 in 5.0 mi SSW 4.6 mph - N/A Rain Light Rain
4:15 PM 33.4 °F 29.1 °F 29.7 °F 86% 29.61 in 4.0 mi South 4.6 mph - N/A   Overcast
4:36 PM 33.4 °F 30.4 °F 29.7 °F 86% 29.61 in 5.0 mi South 3.5 mph - N/A Rain Light Rain
4:55 PM 32.9 °F 29.8 °F 30.2 °F 90% 29.60 in 2.0 mi SSE 3.5 mph - N/A Snow Light Snow
5:15 PM 32.2 °F 27.7 °F 30.9 °F 95% 29.60 in 2.0 mi SSE 4.6 mph - N/A Snow Light Snow
5:35 PM 32.0 °F 28.7 °F 31.1 °F 96% 29.60 in 0.8 mi SSE 3.5 mph - N/A Snow Light Snow
5:56 PM 31.8 °F - 31.1 °F 97% 29.59 in 1.5 mi Calm Calm - N/A Snow Light Snow
6:15 PM 31.6 °F 28.3 °F 31.3 °F 99% 29.59 in 1.2 mi SSE 3.5 mph - 0.01 in Snow Light Snow
6:35 PM 31.6 °F - 31.5 °F 99% 29.59 in 1.5 mi Calm Calm - 0.02 in Snow Light Snow
6:55 PM 31.6 °F - 31.6 °F 100% 29.59 in 1.0 mi Calm Calm - 0.03 in Snow Light Snow
7:15 PM 31.8 °F - 31.8 °F 100% 29.59 in 1.5 mi Calm Calm - 0.01 in Snow Light Snow
7:36 PM 31.8 °F - 31.8 °F 100% 29.58 in 1.5 mi Calm Calm - 0.02 in Snow Light Snow
7:55 PM 32.0 °F - 32.0 °F 100% 29.58 in 2.0 mi Calm Calm - 0.03 in Snow Light Snow
8:15 PM 31.8 °F - 31.8 °F 100% 29.57 in 1.8 mi Calm Calm - N/A Snow Light Snow
8:36 PM 31.8 °F - 31.8 °F 100% 29.57 in 1.5 mi Calm Calm - 0.01 in Snow Light Snow
8:56 PM 31.8 °F - 31.8 °F 100% 29.56 in 1.5 mi Calm Calm - 0.02 in Snow Light Snow
9:15 PM 31.6 °F - 31.6 °F 100% 29.57 in 1.2 mi Calm Calm - 0.01 in Snow Light Snow
9:35 PM 31.6 °F - 31.8 °F 100% 29.56 in 1.5 mi Calm Calm - 0.02 in Snow Light Snow
9:56 PM 31.6 °F 28.3 °F 31.8 °F 100% 29.57 in 1.5 mi North 3.5 mph - 0.02 in Snow Light Snow
10:16 PM 31.6 °F 28.3 °F 31.8 °F 100% 29.57 in 1.2 mi North 3.5 mph - 0.01 in Snow Light Snow
10:35 PM 31.6 °F 27.0 °F 31.8 °F 100% 29.57 in 1.0 mi North 4.6 mph - 0.02 in Snow Light Snow
10:55 PM 31.5 °F 25.8 °F 31.6 °F 100% 29.58 in 1.5 mi North 5.8 mph - 0.03 in Snow Light Snow
11:16 PM 31.5 °F 24.9 °F 31.5 °F 100% 29.59 in 1.8 mi North 6.9 mph - N/A Snow Light Snow
11:35 PM 31.5 °F 24.2 °F 31.5 °F 100% 29.59 in 2.5 mi North 8.1 mph - N/A   Overcast
11:55 PM 31.6 °F 23.7 °F 31.6 °F 100% 29.60 in 2.0 mi North 9.2 mph - N/A   Overcast